[[{"header":{"parameterUnit":"m.s-1","parameterCategory":1,"la1":30.2991,"la2":30.254,"lo1":-89.0895,"lo2":-89.0444,"dy":0.0017,"dx":0.0017,"nx":28,"ny":28,"refTime":"2025-12-21T03:00:00:Z","depth":0,"parameterNumber":2,"parameterNumberName":"U-component_of_WINDS"},"data":[0,0,0,0,0,0,0,0,0,0,0,0,0,0,0,0,0,0,0,0,0,0,0,0,0,0,0,0,0,0,0,0,0,0,0,0,0,0,0,0,0,0,0,0,0,0,0,0,0,0,0,0,0,0,0,0,0,0,-4.616,-4.616,0,-4.6186,-4.6186,-4.6187,-4.6106,-4.6104,-4.6101,-4.6099,-4.6131,-4.6134,-4.6137,0,0,0,0,0,0,0,0,0,0,0,0,0,-4.6047,-4.6049,-4.6159,-4.616,-4.616,-4.6186,-4.6186,-4.6187,-4.6107,-4.6104,-4.6101,-4.6098,-4.613,-4.6133,-4.6137,0,0,0,0,0,0,0,0,0,0,0,0,0,-4.6087,-4.605,-4.6159,-4.6123,-4.612,-4.6186,-4.6186,-4.6187,-4.6107,-4.6104,-4.61,-4.6096,-4.6128,-4.6133,-4.6138,-4.6241,0,0,-4.6152,-4.6154,0,0,0,0,0,0,0,0,-4.6085,-4.6091,-4.6128,-4.6126,-4.6123,-4.6139,-4.6158,-4.6205,-4.6108,-4.6112,-4.6099,-4.6095,-4.6137,-4.614,-4.6154,-4.6242,-4.6244,-4.6152,-4.6155,-4.6157,-4.6159,0,0,0,0,0,0,0,-4.6082,-4.6089,-4.617,-4.6129,-4.6126,-4.6108,-4.611,-4.6167,-4.6145,-4.6112,-4.6106,-4.611,-4.6134,-4.6149,-4.6154,-4.6244,-4.6152,-4.6156,-4.6159,-4.6161,-4.6423,-4.6427,0,0,0,0,0,0,-4.6083,-4.6088,-4.6169,-4.6171,-4.6094,-4.6113,-4.6115,-4.6138,-4.6144,-4.6142,-4.6113,-4.6106,-4.6143,-4.6148,-4.6155,-4.6277,-4.6157,-4.6162,-4.6164,-4.6419,-4.6424,-4.6428,0,0,0,0,0,0,-4.6081,-4.6091,-4.6168,-4.6128,-4.6136,-4.6119,-4.6145,-4.614,-4.6155,-4.6145,-4.6142,-4.6132,-4.614,-4.6148,-4.622,-4.6277,-4.6164,-4.6168,-4.6414,-4.642,-4.6426,-4.6523,0,0,0,0,0,0,-4.6078,-4.6091,-4.6128,-4.6129,-4.6139,-4.6231,-4.6149,-4.6143,-4.6162,-4.6154,-4.6162,-4.616,-4.6138,-4.6214,-4.6225,-4.6282,-4.6172,-4.6409,-4.6417,-4.6424,-4.6515,-4.6532,-4.6547,0,0,0,0,0,-4.6074,-4.6154,-4.613,-4.614,-4.6184,-4.6235,-4.624,-4.6213,-4.6167,-4.6206,-4.6201,-4.6159,-4.627,-4.6222,-4.6234,-4.6293,-4.6405,-4.6415,-4.6424,-4.6508,-4.6529,-4.6546,0,0,0,0,0,0,-4.616,-4.6153,-4.6126,-4.6209,-4.6223,-4.6221,-4.6268,-4.6235,-4.6263,-4.6254,-4.622,-4.6223,-4.6303,-4.6305,-4.6252,-4.6396,-4.633,-4.6342,-4.639,-4.641,-4.6425,-4.6423,-4.6176,0,0,0,0,0,-4.6188,-4.6228,-4.6221,-4.6295,-4.6303,-4.6285,-4.6306,-4.6284,-4.6298,-4.6303,-4.6303,-4.632,-4.6359,-4.6385,-4.642,-4.6516,-4.6518,-4.6563,-4.6579,-4.6592,-4.6603,-4.6657,-4.6678,-4.6459,-4.6459,-4.6459,0,0,-4.6247,-4.6249,-4.6276,-4.6312,-4.632,-4.6365,-4.629,-4.6339,-4.6373,-4.6311,-4.6379,-4.6381,-4.6398,-4.6483,-4.6521,-4.6488,-4.6664,-4.6604,-4.6615,-4.6618,-4.6669,-4.669,-4.6708,-4.6465,-4.6464,-4.6463,0,0,-4.6377,-4.6382,-4.6444,-4.6455,-4.6469,-4.6457,-4.6473,-4.6477,-4.6475,-4.6543,-4.6499,-4.654,-4.6607,-4.6621,-4.6637,-4.6779,-4.6743,-4.6792,-4.6874,-4.6928,-4.6945,-4.696,-4.7012,-4.7031,-4.6803,-4.6803,-4.6803,0,-4.6448,-4.6511,-4.6481,-4.6534,-4.6552,-4.65,-4.6565,-4.6577,-4.6603,-4.6618,-4.6581,-4.6666,-4.6673,-4.6763,-4.6798,-4.6813,-4.6831,-4.6789,-4.6945,-4.696,-4.6973,-4.7022,-4.7042,-4.6809,-4.6808,-4.6808,-4.6807,0,-4.6599,-4.6645,-4.6694,-4.6719,-4.6744,-4.6803,-4.6784,-4.6814,-4.6792,-4.6785,-4.6857,-4.6865,-4.6902,-4.6923,-4.6901,-4.7011,-4.699,-4.695,-4.6883,-4.7,-4.7046,-4.7064,-4.6817,-4.6815,-4.6813,-4.6812,0,0,-4.6779,-4.679,-4.6809,-4.6821,-4.6836,-4.6871,-4.693,-4.6966,-4.6992,-4.7014,-4.7063,-4.7124,-4.7088,-4.7106,-4.7087,-4.7134,-4.7248,-4.7088,-4.7088,-4.7118,-4.7372,-4.7402,-4.7424,-4.7226,-4.7229,-4.7232,-4.7371,0,-4.6907,-4.7005,-4.6982,-4.708,-4.7124,-4.7077,-4.7129,-4.7145,-4.7142,-4.718,-4.7178,-4.7221,-4.717,-4.7181,-4.7226,-4.7225,-4.7299,-4.7215,-4.7273,-4.7276,-4.7269,-4.7447,-4.7478,-4.7609,-4.7389,-4.7392,-4.7394,0,-4.7067,-4.7095,-4.7198,-4.7208,-4.7226,-4.7272,-4.7305,-4.7342,-4.7361,-4.7356,-4.738,-4.7352,-4.7414,-4.7349,-4.7435,-4.7379,-4.7403,-4.7407,-4.7411,-4.7414,-4.7341,-4.7456,-4.7649,-4.7669,-4.7422,-4.7419,-4.7417,0,-4.7189,-4.7252,-4.7322,-4.7335,-4.7349,-4.7383,-4.7391,-4.7406,-4.7431,-4.7461,-4.7477,-4.7515,-4.7536,-4.7567,-4.7553,-4.7506,-4.7643,-4.7575,-4.7642,-4.7642,-4.767,-4.7668,-4.787,-4.7688,-4.7687,-4.7687,-4.7687,0,-4.7333,-4.7398,-4.7377,-4.742,-4.7493,-4.7469,-4.7542,-4.7545,-4.756,-4.7605,-4.7569,-4.7613,-4.7591,-4.7634,-4.7624,-4.7698,-4.7708,-4.7707,-4.7703,-4.771,-4.771,-4.7723,-4.7714,-4.7692,-4.7691,-4.769,-4.7689,0,-4.7479,-4.7468,-4.7541,-4.755,-4.7554,-4.7608,-4.7616,-4.7658,-4.7654,-4.7712,-4.7725,-4.7719,-4.7769,-4.7758,-4.7812,-4.7806,-4.7899,-4.7885,-4.7892,-4.7888,-4.7955,-4.7949,-4.8172,-4.8201,-4.8,-4.8002,-4.8004,0,-4.7571,-4.762,-4.7635,-4.7662,-4.7673,-4.7717,-4.7742,-4.7722,-4.7751,-4.7779,-4.7819,-4.7865,-4.79,-4.7983,-4.7985,-4.8028,-4.8014,-4.8089,-4.8019,-4.8026,-4.8015,-4.8012,-4.8018,-4.8102,-4.8104,-4.8106,-4.8108,0,-4.7735,-4.7729,-4.7765,-4.7802,-4.7834,-4.7862,-4.7886,-4.7912,-4.7895,-4.7929,-4.7979,-4.8007,-4.8064,-4.8111,-4.8152,-4.8163,-4.8134,-4.813,-4.8148,-4.8154,-4.8156,-4.8156,-4.7929,-4.8124,-4.8123,-4.8121,-4.8121,-4.812,-4.7857,-4.7899,-4.7917,-4.7961,-4.7978,-4.8004,-4.8044,-4.8047,-4.8088,-4.8131,-4.8118,-4.8176,-4.8199,-4.8251,-4.8267,-4.8314,-4.8286,-4.8311,-4.8317,-4.8324,-4.8332,-4.8151,-4.8321,-4.8321,-4.832,-4.832,-4.832,0,-4.8019,-4.803,-4.8071,-4.8107,-4.8143,-4.8113,-4.8141,-4.8173,-4.8224,-4.8247,-4.8284,-4.8344,-4.8391,-4.8399,-4.8445,-4.8481,-4.8469,-4.8494,-4.849,-4.8494,-4.8354,-4.8334,-4.8503,-4.8503,-4.8503,-4.8503,-4.8503,-4.8503,-4.8108,-4.8179,-4.8175,-4.8256,-4.8267,-4.8322,-4.8341,-4.8366,-4.8384,-4.8452,-4.8491,-4.8496,-4.8515,-4.8563,-4.8606,-4.8608,-4.8626,-4.8656,-4.8653,-4.8522,-4.8503,-4.8486,-4.8467,-4.866,-4.8661,-4.8788,-4.8789,-4.879]},{"header":{"parameterUnit":"m.s-1","parameterCategory":1,"la1":30.2991,"la2":30.254,"lo1":-89.0895,"lo2":-89.0444,"dy":0.0017,"dx":0.0017,"nx":28,"ny":28,"refTime":"2025-12-21T03:00:00:Z","depth":0,"parameterNumber":3,"parameterNumberName":"V-component_of_WINDS"},"data":[0,0,0,0,0,0,0,0,0,0,0,0,0,0,0,0,0,0,0,0,0,0,0,0,0,0,0,0,0,0,0,0,0,0,0,0,0,0,0,0,0,0,0,0,0,0,0,0,0,0,0,0,0,0,0,0,0,0,0.1348,0.1349,0,0.1418,0.1419,0.142,0.1468,0.1468,0.1468,0.1469,0.1539,0.1541,0.1542,0,0,0,0,0,0,0,0,0,0,0,0,0,0.1257,0.1258,0.1348,0.1349,0.135,0.1418,0.1419,0.142,0.1468,0.1468,0.1469,0.1469,0.1539,0.1541,0.1543,0,0,0,0,0,0,0,0,0,0,0,0,0,0.1309,0.1259,0.1348,0.1382,0.1385,0.1418,0.1419,0.142,0.1468,0.1468,0.1469,0.1469,0.1538,0.154,0.1543,0.1547,0,0,0.155,0.1551,0,0,0,0,0,0,0,0,0.1306,0.1312,0.1376,0.1379,0.1384,0.1435,0.1413,0.1463,0.1467,0.1436,0.1469,0.1469,0.1504,0.1509,0.1521,0.155,0.1553,0.155,0.1552,0.1553,0.1553,0,0,0,0,0,0,0,0.1302,0.1309,0.1376,0.1377,0.1382,0.1394,0.1402,0.1423,0.1466,0.1439,0.1443,0.145,0.1506,0.1519,0.1523,0.1554,0.155,0.1552,0.1554,0.1554,0.1594,0.1594,0,0,0,0,0,0,0.1293,0.1306,0.1373,0.1378,0.1345,0.1395,0.1404,0.1418,0.1466,0.1474,0.145,0.1452,0.1515,0.152,0.1526,0.1536,0.1552,0.1555,0.1556,0.1594,0.1594,0.1594,0,0,0,0,0,0,0.1291,0.1299,0.1371,0.1343,0.1353,0.1396,0.1411,0.1419,0.1432,0.1474,0.1483,0.1455,0.1515,0.1523,0.1542,0.1539,0.1556,0.1558,0.1595,0.1594,0.1594,0.1555,0,0,0,0,0,0,0.1288,0.1298,0.1299,0.1343,0.1354,0.1385,0.1411,0.142,0.1436,0.1439,0.1481,0.1488,0.1516,0.1539,0.1545,0.1543,0.156,0.1595,0.1595,0.1594,0.1557,0.1553,0.155,0,0,0,0,0,0.1285,0.1284,0.1298,0.1306,0.1357,0.1385,0.1391,0.1424,0.1435,0.1437,0.1466,0.1487,0.1539,0.154,0.1547,0.1546,0.1596,0.1595,0.1594,0.1558,0.1554,0.155,0,0,0,0,0,0,0.1237,0.129,0.1307,0.132,0.1348,0.1393,0.1396,0.1418,0.1442,0.1445,0.1484,0.1493,0.1509,0.153,0.153,0.1555,0.157,0.1571,0.154,0.1537,0.1533,0.1528,0.1562,0,0,0,0,0,0.1228,0.1246,0.1292,0.1299,0.1312,0.1352,0.1365,0.1388,0.1418,0.143,0.1459,0.1488,0.1511,0.1525,0.1548,0.1561,0.1572,0.1564,0.156,0.1558,0.1558,0.1569,0.1567,0.1591,0.1591,0.1591,0,0,0.1209,0.1241,0.1249,0.129,0.1314,0.1333,0.1361,0.1379,0.1394,0.1432,0.1453,0.1476,0.1511,0.1528,0.1537,0.1545,0.1554,0.1557,0.1554,0.1556,0.1568,0.1566,0.1564,0.1591,0.1591,0.1591,0,0,0.1185,0.121,0.122,0.1245,0.1282,0.1309,0.1312,0.1355,0.1372,0.1394,0.1425,0.1443,0.1481,0.1506,0.1523,0.1514,0.1535,0.152,0.1503,0.1514,0.1512,0.151,0.1509,0.1508,0.152,0.152,0.152,0,0.1157,0.1186,0.1223,0.124,0.1258,0.1296,0.1308,0.133,0.1373,0.1385,0.1394,0.1446,0.1471,0.1496,0.1495,0.1507,0.1512,0.1515,0.1509,0.1508,0.1507,0.1506,0.1506,0.1518,0.1518,0.1518,0.1519,0,0.1152,0.1172,0.1176,0.1218,0.1237,0.1251,0.1291,0.1306,0.1328,0.1355,0.1379,0.1412,0.1444,0.1452,0.1473,0.1481,0.1486,0.1502,0.1518,0.1502,0.1502,0.1502,0.1515,0.1516,0.1516,0.1517,0,0,0.1096,0.1161,0.1162,0.1184,0.1229,0.1246,0.1264,0.1297,0.131,0.1339,0.1356,0.1389,0.1406,0.1426,0.1451,0.146,0.1454,0.1475,0.1477,0.1471,0.1467,0.1456,0.1454,0.1469,0.1469,0.1469,0.1465,0,0.108,0.1114,0.1149,0.1171,0.1192,0.123,0.1246,0.1276,0.1303,0.1325,0.1354,0.1378,0.1397,0.141,0.1421,0.1452,0.1453,0.1453,0.1486,0.1487,0.1476,0.1454,0.1441,0.1436,0.1465,0.1465,0.1465,0,0.1065,0.1095,0.1119,0.1166,0.1176,0.119,0.1225,0.1245,0.1282,0.1301,0.1325,0.1353,0.1375,0.1389,0.1422,0.1421,0.1437,0.1455,0.1456,0.146,0.1475,0.1459,0.1434,0.1434,0.1465,0.1465,0.1465,0,0.1025,0.1071,0.1092,0.1109,0.1164,0.1173,0.1196,0.1234,0.1253,0.1284,0.1297,0.1329,0.1347,0.1373,0.1409,0.1416,0.1439,0.1456,0.1457,0.1456,0.1459,0.1458,0.1438,0.1468,0.1468,0.1468,0.1468,0,0.1004,0.1017,0.1075,0.1088,0.1106,0.1147,0.1163,0.119,0.1224,0.1244,0.1279,0.1298,0.1344,0.1369,0.1398,0.1422,0.1429,0.1446,0.1454,0.1443,0.1441,0.1454,0.1456,0.1468,0.1468,0.1468,0.1468,0,0.0961,0.1,0.1026,0.1078,0.1091,0.1102,0.1147,0.1162,0.1192,0.1217,0.1225,0.1272,0.1303,0.1343,0.1385,0.1405,0.1427,0.1437,0.1414,0.1419,0.1418,0.1418,0.1405,0.1407,0.1435,0.1435,0.1434,0,0.0945,0.0957,0.1011,0.1027,0.105,0.1076,0.1096,0.1139,0.1159,0.1204,0.1214,0.1248,0.1277,0.1326,0.1364,0.1398,0.1411,0.1404,0.1416,0.1406,0.1412,0.1411,0.1414,0.1401,0.14,0.14,0.1399,0,0.0914,0.0933,0.0961,0.0997,0.1021,0.1051,0.1082,0.1094,0.1143,0.1164,0.1197,0.122,0.1266,0.13,0.134,0.1365,0.1391,0.1396,0.1398,0.1387,0.1374,0.1383,0.1407,0.1395,0.1396,0.1396,0.1396,0.1396,0.0885,0.0899,0.094,0.0971,0.1,0.1029,0.1047,0.108,0.1109,0.115,0.1173,0.1206,0.1246,0.1303,0.1327,0.1355,0.1364,0.1367,0.1367,0.1368,0.1365,0.137,0.1362,0.1362,0.1362,0.1362,0.1362,0,0.0857,0.0886,0.0914,0.0958,0.0984,0.1007,0.1044,0.1064,0.1093,0.1128,0.1157,0.1197,0.1231,0.1274,0.1311,0.1325,0.1338,0.1334,0.1333,0.1339,0.1354,0.1349,0.1323,0.1323,0.1323,0.1323,0.1323,0.1323,0.0845,0.087,0.0895,0.0936,0.0966,0.0999,0.1018,0.1047,0.1076,0.1119,0.1148,0.1176,0.1215,0.1256,0.129,0.1302,0.1314,0.1306,0.1322,0.1334,0.1338,0.1341,0.1337,0.1309,0.1309,0.1306,0.1305,0.1305]}]]